Location: Marcé
(47.5801°N, 0.3280°W)
Time: 19:56:17
(UTC+01:00)

Courier 1B - Pass Details

Date: 01 December 2021
Orbit: 962 x 1209 km, 28.3° (Epoch: 22 January)

Event Time Altitude Azimuth Distance (km) Brightness Sun altitude
Rises 19:08:04 0° 222° (SW) 3,933 11.6 -18.9°
Reaches altitude 10° 19:12:38 10° 197° (SSW) 2,916 10.3 -19.6°
Maximum altitude 19:15:43 13° 171° (S) 2,640 9.8 -20.1°
Drops below altitude 10° 19:18:44 10° 145° (SE) 2,836 9.7 -20.6°
Enters shadow 19:19:27 - 140° (SE) 2,943 9.7 -20.7°
